SCP
0 0 0 0 0 0 1 1 1 3 2 0 0 0 1 2 2 2 3 3 3 2 3 1 2 2 1 1 3 1 1 1 2 3 1 1 1 1 0 1 1 0 0
0 0 0 0 0 0 1 1 1 2 4 1 2 1 2 1 2 2 3 3 2 1 2 1 2 2 1 2 2 2 1 1 2 2 1 1 1 1 1 1 1 0 0
0 0 0 0 0 0 1 1 1 3 4 3 2 4 3 3 2 3 3 2 1 2 2 1 2 2 1 1 2 1 1 3 2 1 1 0 1 1 0 0 0 0 0
0 0 0 0 0 0 0 0 1 3 4 6 2 4 2 1 2 2 1 1 2 2 2 1 1 2 1 2 1 1 2 2 1 1 1 0 0 0 1 1 0 0 0
0 0 0 0 0 0 0 0 1 3 3 4 2 1 1 1 1 1 2 2 2 2 1 1 1 1 1 3 2 2 2 1 1 1 0 0 0 0 0 0 0 0 0
0 0 0 0 0 0 0 0 1 2 3 2 2 2 1 1 1 2 1 2 1 1 1 1 2 1 1 2 2 2 1 1 1 0 1 0 0 0 0 0 0 0 0
0 0 0 0 0 0 0 0 0 0 1 1 1 1 1 3 4 2 1 2 2 1 1 2 2 1 1 2 1 1 1 1 0 0 0 0 0 0 0 0 0 0 0
0 0 0 0 0 0 0 0 0 0 1 1 1 1 2 2 2 0 2 1 1 1 2 1 1 1 1 1 1 1 0 0 0 0 0 0 -0 0 0 0 0 0 0
0 0 0 0 0 0 0 0 0 0 1 1 1 1 1 2 1 3 3 1 1 2 1 1 1 1 1 0 1 0 0 0 0 0 0 0 -0 -0 0 0 0 -0 0
0 0 0 0 0 0 0 0 1 1 1 1 1 1 2 2 3 2 2 2 3 1 1 1 1 1 0 0 0 0 1 0 1 0 0 0 0 -0 0 0 -0 0 0
0 0 2 1 1 1 0 1 1 1 0 1 1 2 2 2 1 1 1 1 1 1 0 1 0 0 0 0 0 0 0 0 0 0 0 0 0 -0 0 0 -0 0 0
-0 -0 0 0 0 0 1 1 1 0 0 1 1 1 0 0 1 1 1 0 0 0 0 0 0 0 0 0 0 0 0 0 0 0 0 0 0 0 0 0 0 0 0
-0 0 1 2 1 1 1 1 0 0 0 0 0 0 0 0 0 0 0 0 0 0 0 0 0 0 0 0 0 0 0 0 0 0 0 0 0 0 0 0 0 0 0
0 -0 1 4 3 1 1 0 0 0 0 0 0 0 0 0 0 0 0 0 0 0 0 0 0 0 0 0 0 0 0 0 0 0 0 -0 0 0 0 0 0 0 0
0 -0 1 2 2 1 1 0 0 0 0 0 0 0 0 0 0 0 0 0 0 0 0 0 0 0 0 0 0 0 0 0 0 0 0 -0 0 0 0 0 0 0 0
0 -0 0 1 2 1 0 0 0 0 0 0 0 0 0 0 0 0 0 0 0 0 0 0 0 0 0 0 0 0 0 0 0 0 -0 0 0 0 0 0 0 0 0
0 0 0 1 2 1 1 0 0 0 0 0 0 0 0 0 0 0 0 0 0 0 0 0 0 0 0 0 0 0 0 0 0 0 -0 0 0 0 0 0 0 0 0
0 0 0 1 1 1 0 0 0 0 0 0 0 0 0 0 0 0 0 0 0 0 0 0 0 0 0 0 0 0 0 0 0 0 -0 0 0 0 0 0 0 0 0
0 0 0 0 0 0 0 0 0 0 0 0 0 0 0 0 0 -0 -0 -0 0 0 0 0 0 -0 -0 0 0 0 0 0 0 -0 -0 0 0 0 0 0 0 0 0
0 2 0 0 0 0 0 0 0 0 0 -0 -0 0 -0 -0 0 0 0 -0 -0 0 0 0 0 -0 -0 0 0 0 0 -0 -0 -0 -0 0 0 0 0 0 0 0 0
0 1 0 0 -0 0 0 0 0 -0 -0 -0 -0 0 -0 -0 0 0 0 -0 -0 0 0 0 0 -0 -0 -0 0 -0 0 0 -0 0 0 0 0 0 0 0 0 0 0
0 1 0 -0 0 0 0 0 -0 -0 -0 -0 0 -0 -0 -0 -0 0 0 -0 0 -0 0 0 0 -0 -0 -0 -0 -0 -0 0 -0 0 0 0 0 0 0 0 0 0 0
1 0 0 0 0 0 -0 0 0 -0 0 0 -0 -0 -0 0 -0 -0 0 0 0 0 0 0 0 -0 -0 -0 -0 -0 -0 -0 0 0 0 0 0 0 0 0 0 0 0
1 0 0 0 0 0 -0 -0 -0 -0 0 -0 -0 -0 -0 -0 -0 -0 0 0 -0 0 0 0 0 0 -0 -0 -0 0 0 -0 0 0 0 0 0 0 0 0 0 0 0
1 1 0 0 0 0 0 -0 -0 -0 -0 -0 0 -0 -0 -0 -0 -0 0 0 0 0 0 0 0 -0 -0 0 0 0 0 0 0 0 0 0 0 0 0 0 0 0 0
0 0 0 0 0 0 -0 -0 0 -0 -0 -0 0 0 -0 -0 -0 -0 -0 -0 -0 0 0 0 0 0 -0 -0 -0 -0 -0 -0 -0 -0 -0 0 0 0 0 0 0 0 0
Wind_Speed_500mb
73 68 54 43 44 51 56 58 58 58 59 54 48 46 47 44 41 43 46 45 46 46 52 45 44 48 47 47 55 46 45 35 34 34 28 33 39 37 28 42 38 37 34
61 63 61 57 55 60 56 54 60 56 53 46 54 50 43 40 41 39 42 44 44 44 46 46 42 51 39 50 49 46 34 36 36 25 24 26 27 29 27 32 35 40 34
74 67 62 65 63 59 57 57 58 59 57 49 45 43 49 40 39 40 40 42 43 47 49 47 42 43 40 37 47 38 39 35 26 24 21 18 7 11 13 20 30 32 40
66 70 74 74 68 67 65 64 63 63 55 55 47 44 38 36 39 41 34 40 46 52 46 47 43 39 34 33 34 35 34 33 21 20 22 29 23 9 7 14 20 26 34
82 81 76 72 68 67 62 62 64 61 62 55 50 45 46 36 30 32 48 46 47 37 38 36 37 35 34 35 30 32 30 25 28 22 20 18 21 26 24 15 17 20 26
63 64 61 61 57 53 53 53 54 59 61 64 62 56 48 39 34 44 43 44 38 38 38 35 37 33 31 31 31 32 30 28 23 21 22 19 17 24 26 21 16 25 21
43 53 55 49 48 43 46 43 41 49 52 48 50 50 46 43 47 51 37 43 38 40 43 40 36 30 30 28 29 33 28 25 19 22 20 21 28 20 23 19 14 11 15
38 39 40 38 36 38 39 36 34 32 37 40 41 42 47 43 41 37 38 34 36 35 38 38 33 28 25 31 27 24 22 18 21 21 20 23 16 20 18 23 23 15 13
24 31 36 38 36 32 35 36 33 35 37 39 41 43 44 44 39 45 38 37 31 37 34 31 28 27 30 24 26 18 19 22 27 22 21 20 20 17 20 15 16 21 15
29 21 27 23 23 29 32 31 34 37 39 42 42 42 43 45 48 44 38 40 41 32 33 29 27 29 20 17 20 19 24 31 29 22 21 23 20 22 13 17 20 22 16
11 17 11 12 19 26 30 36 38 42 43 44 47 52 51 48 44 42 39 36 34 31 28 25 23 21 21 20 22 26 25 25 29 29 19 21 19 19 24 21 17 22 22
13 4 8 13 23 34 38 41 44 45 46 48 52 50 47 45 44 40 34 31 29 27 25 24 22 20 17 20 18 17 17 22 29 29 26 19 15 20 27 23 25 20 15
20 6 9 19 31 38 43 45 48 49 46 46 47 46 45 42 40 36 31 29 27 27 24 22 19 17 14 13 12 16 24 28 31 31 34 25 16 18 26 28 29 22 20
23 12 7 3 22 42 47 50 49 47 47 45 46 45 42 38 35 32 30 28 28 26 24 23 17 11 8 10 14 19 21 21 25 29 35 32 16 16 26 25 25 25 27
21 15 12 6 33 41 47 48 47 47 47 46 43 40 37 34 32 32 31 30 27 26 23 17 13 10 7 11 12 4 7 17 23 25 37 33 23 21 23 20 24 32 33
21 10 23 20 20 43 49 48 48 47 45 42 39 37 35 34 32 34 35 31 30 27 22 16 13 9 8 4 4 8 5 3 8 16 30 31 30 24 24 33 29 34 40
24 9 31 34 32 49 48 49 48 45 42 39 38 36 34 32 36 34 31 31 28 25 22 16 8 8 5 4 8 13 11 8 15 21 26 23 22 25 25 34 31 29 32
25 16 35 45 52 37 47 47 45 42 40 38 37 33 31 29 31 31 33 31 25 23 21 18 13 7 7 8 13 16 10 10 15 17 22 23 19 25 23 30 29 29 26
24 17 42 49 52 50 49 46 44 42 39 37 33 30 29 31 34 34 35 26 24 21 21 18 15 10 9 8 11 8 5 10 13 17 22 28 26 25 37 32 34 35 31
25 18 46 54 62 51 49 46 43 41 38 36 34 28 30 33 33 34 29 27 22 20 19 18 15 13 8 7 12 12 9 5 9 18 21 25 32 28 34 32 37 36 33
28 13 51 52 58 53 49 44 43 39 40 34 28 27 27 26 33 32 30 27 23 20 21 19 14 15 8 13 14 22 13 13 9 16 22 26 34 28 29 27 29 33 38
28 36 51 57 55 51 47 45 42 41 37 33 31 28 30 31 29 28 24 23 24 22 21 17 18 13 11 13 13 21 19 12 16 22 33 34 35 32 33 33 29 34 39
29 50 49 56 53 50 48 47 43 40 40 33 31 30 30 28 29 27 27 25 23 23 23 21 17 17 16 15 17 25 19 18 20 25 30 33 34 35 30 30 32 35 39
29 49 52 57 53 49 47 46 44 42 37 38 34 33 32 29 24 21 23 21 23 23 23 23 21 22 21 19 19 27 17 17 24 29 35 36 37 33 35 36 33 24 27
43 46 58 54 51 49 49 48 46 41 44 38 36 34 29 24 18 18 14 13 20 23 22 22 20 24 27 22 24 28 26 19 30 35 39 42 41 42 40 41 27 20 27
47 38 56 52 51 51 51 48 44 43 40 41 36 36 27 22 21 16 16 15 13 23 22 22 21 20 18 26 24 36 30 30 34 33 40 44 44 43 40 34 30 28 32
Wind_Direction_500mb
248 248 250 248 248 250 250 245 253 256 254 252 255 251 249 242 236 231 224 216 216 213 221 206 217 209 212 212 219 216 219 226 235 242 250 253 253 255 256 258 251 239 228
244 247 250 250 250 252 249 249 256 260 257 250 252 241 247 244 236 228 220 211 210 210 213 194 211 213 209 212 214 213 215 223 230 226 254 266 262 238 242 252 240 244 219
252 251 252 255 253 253 251 250 251 258 252 249 242 236 232 233 227 216 211 209 207 205 208 189 203 218 194 212 211 210 204 214 218 225 234 268 261 268 257 257 240 227 208
256 254 253 255 253 253 254 252 249 252 245 237 226 227 227 222 219 215 208 213 199 204 209 194 195 203 192 208 202 206 207 215 224 228 251 247 254 254 263 255 242 228 228
246 250 252 254 256 254 251 247 243 239 237 235 236 224 225 222 217 197 204 204 201 200 195 186 183 196 180 202 198 199 210 224 228 234 248 236 246 244 245 258 239 213 222
248 248 253 253 250 249 245 238 234 232 227 239 238 220 222 198 197 192 206 187 180 178 175 175 184 188 179 200 194 208 219 227 229 236 247 237 237 244 237 237 226 204 214
258 250 243 242 246 244 230 224 225 224 225 216 214 209 203 189 185 198 177 175 166 171 173 178 181 184 183 201 197 217 223 232 222 229 235 234 240 240 237 219 207 197 187
252 250 245 243 247 239 218 217 213 208 201 197 193 186 184 183 185 167 179 166 170 170 182 176 180 188 199 209 213 217 227 216 221 215 227 228 230 234 232 226 211 183 183
282 266 255 246 242 230 213 208 204 194 188 180 176 174 173 172 173 171 166 159 160 173 170 176 189 196 211 207 219 221 206 216 214 219 235 233 233 217 221 216 204 193 173
263 265 251 235 226 212 193 188 181 175 169 164 165 160 160 161 160 158 159 158 165 163 171 181 193 201 203 208 215 214 222 220 226 225 235 229 228 221 211 207 209 214 199
345 269 271 225 208 190 186 172 167 163 161 158 156 158 160 158 150 150 149 153 153 163 170 183 193 203 202 204 216 225 226 225 227 219 224 228 229 220 191 206 198 204 181
51 261 213 202 179 172 165 161 160 159 156 155 152 150 147 145 145 146 149 154 158 165 177 182 182 187 197 214 226 235 228 237 230 220 215 221 230 220 191 190 207 196 178
28 47 156 171 166 159 157 157 157 154 153 148 145 143 144 146 144 147 153 159 162 163 166 169 176 189 201 241 235 241 245 230 231 227 218 220 212 214 198 186 197 195 188
3 93 163 132 138 154 153 153 151 149 148 148 147 145 145 146 148 152 154 158 159 157 162 175 169 185 203 232 234 253 247 227 239 232 224 221 202 209 194 189 186 183 168
344 110 169 101 144 154 151 148 146 147 148 147 147 145 146 148 151 152 156 156 156 165 168 153 164 178 226 233 251 213 246 232 243 241 225 197 201 207 192 180 181 168 160
323 93 162 165 138 148 154 148 148 148 149 148 147 145 146 149 153 158 157 154 166 156 153 159 170 186 209 238 215 183 186 217 170 175 186 195 209 198 199 178 168 176 170
294 330 174 169 157 157 149 151 149 150 148 146 145 148 151 158 159 158 158 162 158 161 157 145 183 157 159 134 133 133 135 147 138 149 173 190 196 190 186 180 172 169 171
279 308 183 168 166 166 157 152 153 151 148 148 149 151 157 163 159 161 162 163 163 166 150 140 140 152 126 113 130 132 166 172 156 161 172 172 171 176 161 161 161 170 179
267 258 189 168 166 167 159 155 155 153 153 154 155 158 160 159 159 159 168 160 164 153 141 140 138 129 126 117 118 113 188 169 168 170 170 174 171 178 153 162 162 170 176
325 293 176 163 164 167 158 159 159 158 160 153 146 159 162 159 162 166 164 166 165 150 146 137 139 133 129 107 97 96 93 121 160 171 173 178 180 172 162 180 171 173 181
295 212 167 162 164 161 160 162 160 165 147 143 154 156 160 165 164 168 173 165 166 160 150 140 143 129 134 91 90 116 115 114 101 149 161 161 174 165 165 155 178 181 169
303 181 166 169 161 160 161 160 164 151 146 157 157 152 155 161 163 169 166 167 170 160 169 151 141 140 133 111 109 132 141 114 141 139 135 140 148 159 163 170 171 161 157
291 178 172 155 159 162 164 161 159 148 150 161 148 153 157 159 167 167 171 175 174 177 176 159 156 158 154 137 131 145 131 124 124 146 140 136 136 145 139 149 156 154 158
185 168 159 161 159 163 165 164 157 150 156 150 150 150 151 152 160 176 177 187 183 181 181 168 169 162 168 150 143 149 144 132 140 140 146 146 145 138 141 144 142 151 157
179 170 165 158 160 163 164 164 160 153 157 149 153 153 149 150 148 158 154 175 186 181 180 174 170 171 171 160 148 150 137 144 142 135 136 143 143 143 150 153 143 164 164
175 180 156 159 161 161 163 163 162 157 155 152 162 161 156 154 146 135 140 146 156 170 175 169 164 167 178 164 155 155 159 140 129 125 136 139 142 151 152 159 159 152 158
Wind_Speed_850mb
73 68 54 43 44 51 56 58 58 58 59 54 48 46 47 44 41 43 46 45 46 46 52 45 44 48 47 47 55 46 45 35 34 34 28 33 39 37 28 42 38 37 34
61 63 61 57 55 60 56 54 60 56 53 46 54 50 43 40 41 39 42 44 44 44 46 46 42 51 39 50 49 46 34 36 36 25 24 26 27 29 27 32 35 40 34
74 67 62 65 63 59 57 57 58 59 57 49 45 43 49 40 39 40 40 42 43 47 49 47 42 43 40 37 47 38 39 35 26 24 21 18 7 11 13 20 30 32 40
66 70 74 74 68 67 65 64 63 63 55 55 47 44 38 36 39 41 34 40 46 52 46 47 43 39 34 33 34 35 34 33 21 20 22 29 23 9 7 14 20 26 34
82 81 76 72 68 67 62 62 64 61 62 55 50 45 46 36 30 32 48 46 47 37 38 36 37 35 34 35 30 32 30 25 28 22 20 18 21 26 24 15 17 20 26
63 64 61 61 57 53 53 53 54 59 61 64 62 56 48 39 34 44 43 44 38 38 38 35 37 33 31 31 31 32 30 28 23 21 22 19 17 24 26 21 16 25 21
43 53 55 49 48 43 46 43 41 49 52 48 50 50 46 43 47 51 37 43 38 40 43 40 36 30 30 28 29 33 28 25 19 22 20 21 28 20 23 19 14 11 15
38 39 40 38 36 38 39 36 34 32 37 40 41 42 47 43 41 37 38 34 36 35 38 38 33 28 25 31 27 24 22 18 21 21 20 23 16 20 18 23 23 15 13
24 31 36 38 36 32 35 36 33 35 37 39 41 43 44 44 39 45 38 37 31 37 34 31 28 27 30 24 26 18 19 22 27 22 21 20 20 17 20 15 16 21 15
29 21 27 23 23 29 32 31 34 37 39 42 42 42 43 45 48 44 38 40 41 32 33 29 27 29 20 17 20 19 24 31 29 22 21 23 20 22 13 17 20 22 16
11 17 11 12 19 26 30 36 38 42 43 44 47 52 51 48 44 42 39 36 34 31 28 25 23 21 21 20 22 26 25 25 29 29 19 21 19 19 24 21 17 22 22
13 4 8 13 23 34 38 41 44 45 46 48 52 50 47 45 44 40 34 31 29 27 25 24 22 20 17 20 18 17 17 22 29 29 26 19 15 20 27 23 25 20 15
20 6 9 19 31 38 43 45 48 49 46 46 47 46 45 42 40 36 31 29 27 27 24 22 19 17 14 13 12 16 24 28 31 31 34 25 16 18 26 28 29 22 20
23 12 7 3 22 42 47 50 49 47 47 45 46 45 42 38 35 32 30 28 28 26 24 23 17 11 8 10 14 19 21 21 25 29 35 32 16 16 26 25 25 25 27
21 15 12 6 33 41 47 48 47 47 47 46 43 40 37 34 32 32 31 30 27 26 23 17 13 10 7 11 12 4 7 17 23 25 37 33 23 21 23 20 24 32 33
21 10 23 20 20 43 49 48 48 47 45 42 39 37 35 34 32 34 35 31 30 27 22 16 13 9 8 4 4 8 5 3 8 16 30 31 30 24 24 33 29 34 40
24 9 31 34 32 49 48 49 48 45 42 39 38 36 34 32 36 34 31 31 28 25 22 16 8 8 5 4 8 13 11 8 15 21 26 23 22 25 25 34 31 29 32
25 16 35 45 52 37 47 47 45 42 40 38 37 33 31 29 31 31 33 31 25 23 21 18 13 7 7 8 13 16 10 10 15 17 22 23 19 25 23 30 29 29 26
24 17 42 49 52 50 49 46 44 42 39 37 33 30 29 31 34 34 35 26 24 21 21 18 15 10 9 8 11 8 5 10 13 17 22 28 26 25 37 32 34 35 31
25 18 46 54 62 51 49 46 43 41 38 36 34 28 30 33 33 34 29 27 22 20 19 18 15 13 8 7 12 12 9 5 9 18 21 25 32 28 34 32 37 36 33
28 13 51 52 58 53 49 44 43 39 40 34 28 27 27 26 33 32 30 27 23 20 21 19 14 15 8 13 14 22 13 13 9 16 22 26 34 28 29 27 29 33 38
28 36 51 57 55 51 47 45 42 41 37 33 31 28 30 31 29 28 24 23 24 22 21 17 18 13 11 13 13 21 19 12 16 22 33 34 35 32 33 33 29 34 39
29 50 49 56 53 50 48 47 43 40 40 33 31 30 30 28 29 27 27 25 23 23 23 21 17 17 16 15 17 25 19 18 20 25 30 33 34 35 30 30 32 35 39
29 49 52 57 53 49 47 46 44 42 37 38 34 33 32 29 24 21 23 21 23 23 23 23 21 22 21 19 19 27 17 17 24 29 35 36 37 33 35 36 33 24 27
43 46 58 54 51 49 49 48 46 41 44 38 36 34 29 24 18 18 14 13 20 23 22 22 20 24 27 22 24 28 26 19 30 35 39 42 41 42 40 41 27 20 27
47 38 56 52 51 51 51 48 44 43 40 41 36 36 27 22 21 16 16 15 13 23 22 22 21 20 18 26 24 36 30 30 34 33 40 44 44 43 40 34 30 28 32
Wind_Direction_850mb
248 248 250 248 248 250 250 245 253 256 254 252 255 251 249 242 236 231 224 216 216 213 221 206 217 209 212 212 219 216 219 226 235 242 250 253 253 255 256 258 251 239 228
244 247 250 250 250 252 249 249 256 260 257 250 252 241 247 244 236 228 220 211 210 210 213 194 211 213 209 212 214 213 215 223 230 226 254 266 262 238 242 252 240 244 219
252 251 252 255 253 253 251 250 251 258 252 249 242 236 232 233 227 216 211 209 207 205 208 189 203 218 194 212 211 210 204 214 218 225 234 268 261 268 257 257 240 227 208
256 254 253 255 253 253 254 252 249 252 245 237 226 227 227 222 219 215 208 213 199 204 209 194 195 203 192 208 202 206 207 215 224 228 251 247 254 254 263 255 242 228 228
246 250 252 254 256 254 251 247 243 239 237 235 236 224 225 222 217 197 204 204 201 200 195 186 183 196 180 202 198 199 210 224 228 234 248 236 246 244 245 258 239 213 222
248 248 253 253 250 249 245 238 234 232 227 239 238 220 222 198 197 192 206 187 180 178 175 175 184 188 179 200 194 208 219 227 229 236 247 237 237 244 237 237 226 204 214
258 250 243 242 246 244 230 224 225 224 225 216 214 209 203 189 185 198 177 175 166 171 173 178 181 184 183 201 197 217 223 232 222 229 235 234 240 240 237 219 207 197 187
252 250 245 243 247 239 218 217 213 208 201 197 193 186 184 183 185 167 179 166 170 170 182 176 180 188 199 209 213 217 227 216 221 215 227 228 230 234 232 226 211 183 183
282 266 255 246 242 230 213 208 204 194 188 180 176 174 173 172 173 171 166 159 160 173 170 176 189 196 211 207 219 221 206 216 214 219 235 233 233 217 221 216 204 193 173
263 265 251 235 226 212 193 188 181 175 169 164 165 160 160 161 160 158 159 158 165 163 171 181 193 201 203 208 215 214 222 220 226 225 235 229 228 221 211 207 209 214 199
345 269 271 225 208 190 186 172 167 163 161 158 156 158 160 158 150 150 149 153 153 163 170 183 193 203 202 204 216 225 226 225 227 219 224 228 229 220 191 206 198 204 181
51 261 213 202 179 172 165 161 160 159 156 155 152 150 147 145 145 146 149 154 158 165 177 182 182 187 197 214 226 235 228 237 230 220 215 221 230 220 191 190 207 196 178
28 47 156 171 166 159 157 157 157 154 153 148 145 143 144 146 144 147 153 159 162 163 166 169 176 189 201 241 235 241 245 230 231 227 218 220 212 214 198 186 197 195 188
3 93 163 132 138 154 153 153 151 149 148 148 147 145 145 146 148 152 154 158 159 157 162 175 169 185 203 232 234 253 247 227 239 232 224 221 202 209 194 189 186 183 168
344 110 169 101 144 154 151 148 146 147 148 147 147 145 146 148 151 152 156 156 156 165 168 153 164 178 226 233 251 213 246 232 243 241 225 197 201 207 192 180 181 168 160
323 93 162 165 138 148 154 148 148 148 149 148 147 145 146 149 153 158 157 154 166 156 153 159 170 186 209 238 215 183 186 217 170 175 186 195 209 198 199 178 168 176 170
294 330 174 169 157 157 149 151 149 150 148 146 145 148 151 158 159 158 158 162 158 161 157 145 183 157 159 134 133 133 135 147 138 149 173 190 196 190 186 180 172 169 171
279 308 183 168 166 166 157 152 153 151 148 148 149 151 157 163 159 161 162 163 163 166 150 140 140 152 126 113 130 132 166 172 156 161 172 172 171 176 161 161 161 170 179
267 258 189 168 166 167 159 155 155 153 153 154 155 158 160 159 159 159 168 160 164 153 141 140 138 129 126 117 118 113 188 169 168 170 170 174 171 178 153 162 162 170 176
325 293 176 163 164 167 158 159 159 158 160 153 146 159 162 159 162 166 164 166 165 150 146 137 139 133 129 107 97 96 93 121 160 171 173 178 180 172 162 180 171 173 181
295 212 167 162 164 161 160 162 160 165 147 143 154 156 160 165 164 168 173 165 166 160 150 140 143 129 134 91 90 116 115 114 101 149 161 161 174 165 165 155 178 181 169
303 181 166 169 161 160 161 160 164 151 146 157 157 152 155 161 163 169 166 167 170 160 169 151 141 140 133 111 109 132 141 114 141 139 135 140 148 159 163 170 171 161 157
291 178 172 155 159 162 164 161 159 148 150 161 148 153 157 159 167 167 171 175 174 177 176 159 156 158 154 137 131 145 131 124 124 146 140 136 136 145 139 149 156 154 158
185 168 159 161 159 163 165 164 157 150 156 150 150 150 151 152 160 176 177 187 183 181 181 168 169 162 168 150 143 149 144 132 140 140 146 146 145 138 141 144 142 151 157
179 170 165 158 160 163 164 164 160 153 157 149 153 153 149 150 148 158 154 175 186 181 180 174 170 171 171 160 148 150 137 144 142 135 136 143 143 143 150 153 143 164 164
175 180 156 159 161 161 163 163 162 157 155 152 162 161 156 154 146 135 140 146 156 170 175 169 164 167 178 164 155 155 159 140 129 125 136 139 142 151 152 159 159 152 158